| time (UTC) | temp C | wind direction | speed KPH | gust KPH | rain 1hr cm | rain 24hr cm | rain mn cm | humidity % | barometer mb |
| 20260508043104 | 7 | 237 | 3.2 | 8.0 | 0.00 | 0.00 | 0.00 | 63 | 1013.4 |
| 20260508041505 | 7 | 229 | 1.6 | 4.8 | 0.00 | 0.00 | 0.00 | 62 | 1013.3 |
| 20260508040010 | 7 | 227 | 1.6 | 6.4 | 0.00 | 0.00 | 0.00 | 62 | 1013.2 |
| 20260508034514 | 7 | 235 | 3.2 | 6.4 | 0.00 | 0.00 | 0.00 | 63 | 1013.2 |
| 20260508033027 | 7 | 269 | 0.0 | 4.8 | 0.00 | 0.00 | 0.00 | 64 | 1013.3 |
| 20260508031512 | 7 | 270 | 1.6 | 3.2 | 0.00 | 0.00 | 0.00 | 63 | 1013.3 |
| 20260508030031 | 7 | 271 | 1.6 | 4.8 | 0.00 | 0.00 | 0.00 | 63 | 1013.3 |
| 20260508024531 | 7 | 275 | 1.6 | 4.8 | 0.00 | 0.00 | 0.00 | 63 | 1013.3 |
| 20260508023036 | 7 | 278 | 3.2 | 6.4 | 0.00 | 0.00 | 0.00 | 63 | 1013.2 |
| 20260508021539 | 8 | 284 | 1.6 | 6.4 | 0.00 | 0.00 | 0.00 | 61 | 1013.1 |
| 20260508020049 | 8 | 290 | 3.2 | 8.0 | 0.00 | 0.00 | 0.00 | 60 | 1012.9 |
| 20260508014534 | 9 | 288 | 4.8 | 11.3 | 0.00 | 0.00 | 0.00 | 57 | 1012.7 |
| 20260508013037 | 10 | 294 | 4.8 | 12.9 | 0.00 | 0.00 | 0.00 | 54 | 1012.5 |
| 20260508011552 | 10 | 277 | 6.4 | 14.5 | 0.00 | 0.00 | 0.00 | 53 | 1012.4 |
| 20260508010043 | 10 | 320 | 6.4 | 17.7 | 0.00 | 0.00 | 0.00 | 51 | 1012.0 |
| 20260508004533 | 11 | 273 | 9.7 | 20.9 | 0.00 | 0.00 | 0.00 | 50 | 1011.9 |
| 20260508003038 | 11 | 259 | 6.4 | 20.9 | 0.00 | 0.00 | 0.00 | 49 | 1011.7 |
| 20260508001541 | 11 | 267 | 12.9 | 22.5 | 0.00 | 0.00 | 0.00 | 49 | 1011.3 |
| 20260508000041 | 12 | 335 | 11.3 | 25.7 | 0.00 | 0.00 | 0.00 | 48 | 1011.1 |
| 20260507234532 | 12 | 298 | 11.3 | 24.1 | 0.00 | 0.00 | 0.00 | 47 | 1011.0 |
| 20260507233053 | 12 | 317 | 17.7 | 27.4 | 0.00 | 0.00 | 0.00 | 47 | 1010.9 |
| 20260507231543 | 13 | 304 | 16.1 | 29.0 | 0.00 | 0.00 | 0.00 | 47 | 1010.8 |
| 20260507230051 | 13 | 285 | 16.1 | 32.2 | 0.00 | 0.00 | 0.00 | 44 | 1010.6 |
| 20260507224554 | 13 | 360 | 12.9 | 29.0 | 0.00 | 0.00 | 0.00 | 44 | 1010.5 |
| 20260507223101 | 14 | 304 | 14.5 | 30.6 | 0.00 | 0.00 | 0.00 | 43 | 1010.3 |
| 20260507221503 | 13 | 319 | 8.0 | 20.9 | 0.00 | 0.00 | 0.00 | 43 | 1010.3 |
| 20260507220009 | 15 | 350 | 6.4 | 27.4 | 0.00 | 0.00 | 0.00 | 43 | 1010.2 |
| 20260507214513 | 14 | 320 | 6.4 | 20.9 | 0.00 | 0.00 | 0.00 | 42 | 1010.0 |
| 20260507213026 | 15 | 297 | 8.0 | 27.4 | 0.00 | 0.00 | 0.00 | 42 | 1009.7 |
| 20260507211531 | 14 | 271 | 16.1 | 32.2 | 0.00 | 0.00 | 0.00 | 41 | 1009.9 |
| 20260507210049 | 15 | 257 | 11.3 | 27.4 | 0.00 | 0.00 | 0.00 | 42 | 1009.5 |
| 20260507204549 | 14 | 313 | 9.7 | 24.1 | 0.00 | 0.00 | 0.00 | 41 | 1009.4 |
| 20260507203054 | 15 | 311 | 14.5 | 27.4 | 0.00 | 0.00 | 0.00 | 40 | 1009.5 |
| 20260507201559 | 14 | 298 | 12.9 | 27.4 | 0.00 | 0.00 | 0.00 | 41 | 1009.7 |
| 20260507201506 | 15 | 327 | 12.9 | 27.4 | 0.00 | 0.00 | 0.00 | 40 | 1009.6 |
| 20260507200009 | 15 | 264 | 14.5 | 29.0 | 0.00 | 0.00 | 0.00 | 41 | 1009.7 |
| 20260507194509 | 15 | 299 | 9.7 | 27.4 | 0.00 | 0.00 | 0.00 | 42 | 1009.9 |
| 20260507193015 | 15 | 283 | 6.4 | 29.0 | 0.00 | 0.00 | 0.00 | 43 | 1010.0 |
| 20260507191527 | 14 | 294 | 4.8 | 17.7 | 0.00 | 0.00 | 0.00 | 42 | 1010.0 |
| 20260507190015 | 14 | 274 | 1.6 | 22.5 | 0.00 | 0.00 | 0.00 | 44 | 1010.0 |
| 20260507184555 | 15 | 328 | 12.9 | 27.4 | 0.00 | 0.00 | 0.00 | 43 | 1010.1 |
| 20260507184504 | 14 | 335 | 12.9 | 27.4 | 0.00 | 0.00 | 0.00 | 44 | 1010.2 |
| 20260507183049 | 15 | 264 | 9.7 | 20.9 | 0.00 | 0.00 | 0.00 | 44 | 1010.3 |
| 20260507181611 | 15 | 277 | 9.7 | 24.1 | 0.00 | 0.00 | 0.00 | 42 | 1010.3 |
| 20260507181501 | 15 | 224 | 9.7 | 24.1 | 0.00 | 0.00 | 0.00 | 43 | 1010.4 |
| 20260507180004 | 15 | 315 | 8.0 | 24.1 | 0.00 | 0.00 | 0.00 | 45 | 1010.4 |
| 20260507174510 | 13 | 269 | 6.4 | 17.7 | 0.00 | 0.00 | 0.00 | 47 | 1010.7 |
| 20260507173025 | 13 | 234 | 6.4 | 17.7 | 0.00 | 0.00 | 0.00 | 47 | 1010.8 |
| 20260507171532 | 14 | 250 | 9.7 | 20.9 | 0.00 | 0.00 | 0.00 | 47 | 1010.9 |
| 20260507170024 | 13 | 252 | 4.8 | 17.7 | 0.00 | 0.00 | 0.00 | 50 | 1011.2 |
| 20260507164530 | 13 | 250 | 4.8 | 22.5 | 0.00 | 0.00 | 0.00 | 50 | 1011.3 |
| 20260507163024 | 13 | 259 | 4.8 | 12.9 | 0.00 | 0.00 | 0.00 | 52 | 1011.4 |
| 20260507161531 | 13 | 294 | 1.6 | 8.0 | 0.00 | 0.00 | 0.00 | 52 | 1011.3 |
| 20260507160038 | 12 | 321 | 8.0 | 17.7 | 0.00 | 0.00 | 0.00 | 52 | 1011.5 |
| 20260507154541 | 12 | 271 | 6.4 | 16.1 | 0.00 | 0.00 | 0.00 | 52 | 1011.5 |
| 20260507153049 | 12 | 189 | 8.0 | 16.1 | 0.00 | 0.00 | 0.00 | 49 | 1011.7 |
| 20260507151559 | 13 | 217 | 3.2 | 20.9 | 0.00 | 0.00 | 0.00 | 53 | 1011.9 |
| 20260507150001 | 12 | 217 | 6.4 | 14.5 | 0.00 | 0.00 | 0.00 | 54 | 1012.2 |
| 20260507144509 | 12 | 223 | 4.8 | 16.1 | 0.00 | 0.00 | 0.00 | 52 | 1012.5 |
| 20260507143021 | 12 | 329 | 8.0 | 25.7 | 0.00 | 0.00 | 0.00 | 54 | 1012.5 |
| 20260507141517 | 12 | 318 | 4.8 | 19.3 | 0.00 | 0.00 | 0.00 | 57 | 1012.6 |
| 20260507140017 | 11 | 312 | 8.0 | 19.3 | 0.00 | 0.05 | 0.00 | 60 | 1012.8 |
| 20260507134523 | 11 | 272 | 4.8 | 16.1 | 0.00 | 0.05 | 0.00 | 62 | 1013.1 |
| 20260507133021 | 11 | 242 | 3.2 | 16.1 | 0.00 | 0.05 | 0.00 | 63 | 1013.1 |
| 20260507131508 | 10 | 301 | 4.8 | 12.9 | 0.00 | 0.05 | 0.00 | 62 | 1013.1 |
| 20260507130009 | 10 | 234 | 3.2 | 8.0 | 0.00 | 0.08 | 0.00 | 68 | 1013.3 |
| 20260507124516 | 9 | 226 | 1.6 | 11.3 | 0.00 | 0.08 | 0.00 | 69 | 1013.4 |
| 20260507123013 | 8 | 231 | 1.6 | 6.4 | 0.00 | 0.08 | 0.00 | 72 | 1013.4 |
| 20260507121521 | 7 | 217 | 3.2 | 9.7 | 0.00 | 0.08 | 0.00 | 74 | 1013.5 |
| 20260507120039 | 7 | 200 | 1.6 | 8.0 | 0.00 | 0.25 | 0.00 | 78 | 1013.3 |
| 20260507114528 | 6 | 351 | 0.0 | 1.6 | 0.00 | 0.25 | 0.00 | 81 | 1013.4 |
| 20260507113042 | 6 | 351 | 0.0 | 1.6 | 0.00 | 0.25 | 0.00 | 83 | 1013.4 |
| 20260507111546 | 5 | 355 | 0.0 | 0.0 | 0.00 | 0.25 | 0.00 | 85 | 1013.1 |
| 20260507110054 | 5 | 355 | 0.0 | 0.0 | 0.00 | 0.43 | 0.00 | 87 | 1013.0 |
| 20260507104534 | 3 | 355 | 0.0 | 0.0 | 0.00 | 0.43 | 0.00 | 88 | 1012.8 |
| 20260507103042 | 3 | 351 | 0.0 | 0.0 | 0.00 | 0.43 | 0.00 | 87 | 1012.8 |
| 20260507101550 | 3 | 351 | 0.0 | 0.0 | 0.00 | 0.43 | 0.00 | 87 | 1012.5 |
| 20260507100051 | 3 | 351 | 0.0 | 0.0 | 0.00 | 0.69 | 0.00 | 86 | 1012.6 |
| 20260507094559 | 3 | 351 | 0.0 | 0.0 | 0.00 | 0.69 | 0.00 | 85 | 1012.5 |
| 20260507093049 | 4 | 351 | 0.0 | 0.0 | 0.00 | 0.69 | 0.00 | 84 | 1012.4 |
| 20260507091554 | 4 | 351 | 0.0 | 0.0 | 0.00 | 0.69 | 0.00 | 86 | 1012.6 |
| 20260507090100 | 4 | 351 | 0.0 | 1.6 | 0.00 | 0.91 | 0.00 | 85 | 1012.6 |
| 20260507090002 | 4 | 351 | 0.0 | 3.2 | 0.00 | 0.91 | 0.00 | 85 | 1012.7 |
| 20260507084510 | 4 | 351 | 0.0 | 0.0 | 0.00 | 0.91 | 0.00 | 83 | 1012.6 |
| 20260507083053 | 5 | 351 | 0.0 | 3.2 | 0.00 | 0.91 | 0.00 | 82 | 1012.6 |
| 20260507081557 | 5 | 351 | 0.0 | 3.2 | 0.00 | 0.91 | 0.00 | 81 | 1012.7 |
| 20260507080100 | 5 | 351 | 1.6 | 3.2 | 0.00 | 0.94 | 0.00 | 80 | 1012.6 |
| 20260507080003 | 5 | 351 | 1.6 | 3.2 | 0.00 | 0.94 | 0.00 | 80 | 1012.7 |
| 20260507074504 | 5 | 351 | 0.0 | 0.0 | 0.00 | 0.94 | 0.00 | 81 | 1012.6 |
| 20260507073008 | 5 | 351 | 1.6 | 3.2 | 0.00 | 0.94 | 0.00 | 83 | 1012.6 |
| 20260507071512 | 6 | 351 | 0.0 | 0.0 | 0.00 | 0.94 | 0.00 | 81 | 1012.9 |
| 20260507070018 | 6 | 351 | 0.0 | 0.0 | 0.00 | 1.02 | 0.00 | 81 | 1012.9 |
| 20260507064523 | 6 | 351 | 0.0 | 0.0 | 0.00 | 1.02 | 0.00 | 81 | 1012.8 |
| 20260507063027 | 6 | 351 | 0.0 | 0.0 | 0.00 | 1.02 | 0.00 | 78 | 1012.9 |
| 20260507061538 | 6 | 351 | 0.0 | 4.8 | 0.00 | 1.02 | 0.00 | 76 | 1012.9 |
| 20260507060043 | 7 | 350 | 0.0 | 0.0 | 0.00 | 1.12 | 0.00 | 76 | 1013.0 |
| 20260507054546 | 7 | 350 | 0.0 | 0.0 | 0.00 | 1.12 | 0.00 | 75 | 1013.1 |
| 20260507053053 | 7 | 350 | 0.0 | 0.0 | 0.00 | 1.12 | 0.00 | 73 | 1013.3 |
| 20260507051559 | 7 | 350 | 1.6 | 4.8 | 0.00 | 1.12 | 0.00 | 72 | 1013.6 |
| 20260507050008 | 8 | 350 | 1.6 | 6.4 | 0.00 | 1.19 | 0.00 | 72 | 1013.6 |
| 20260507044514 | 8 | 349 | 1.6 | 6.4 | 0.00 | 1.19 | 0.00 | 72 | 1013.6 |